Radiation Dose at Monitoring Post of Fukushima Daini Nuclear Power Station
Date,Time,MP-1(microSv/h),MP-2(microSv/h),MP-3(microSv/h),MP-4(microSv/h),MP-5(microSv/h),MP-6(microSv/h),MP-7(microSv/h),Wind Direction,Wind Velocity(m/s),Rain
2019/03/22,00:00,0.203,0.187,0.307,0.287,0.276,0.154,0.094,southwest,3.8,No
2019/03/22,00:10,0.203,0.188,0.309,0.289,0.276,0.154,0.094,southwest,2.9,No
2019/03/22,00:20,0.204,0.187,0.306,0.288,0.275,0.155,0.093,south-southwest,1.2,No
2019/03/22,00:30,0.203,0.188,0.306,0.289,0.277,0.154,0.094,-,CALM,No
2019/03/22,00:40,0.203,0.188,0.306,0.288,0.276,0.153,0.094,west,2.9,No
2019/03/22,00:50,0.202,0.187,0.307,0.290,0.277,0.153,0.094,northwest,3.2,No
2019/03/22,01:00,0.205,0.187,0.308,0.289,0.276,0.154,0.095,south,2.8,No
2019/03/22,01:10,0.203,0.187,0.308,0.290,0.275,0.154,0.094,south-southeast,1.1,No
2019/03/22,01:20,0.203,0.188,0.307,0.287,0.276,0.154,0.094,-,CALM,No
2019/03/22,01:30,0.203,0.188,0.306,0.288,0.277,0.154,0.094,south,1.2,No
2019/03/22,01:40,0.204,0.186,0.309,0.290,0.277,0.154,0.094,-,CALM,No
2019/03/22,01:50,0.203,0.189,0.306,0.289,0.276,0.154,0.094,west,1.7,No
2019/03/22,02:00,0.202,0.188,0.309,0.288,0.277,0.155,0.093,west-southwest,1.9,No
2019/03/22,02:10,0.202,0.187,0.306,0.289,0.275,0.154,0.094,north,0.8,No
2019/03/22,02:20,0.203,0.187,0.308,0.290,0.278,0.154,0.094,north,2.2,No
2019/03/22,02:30,0.203,0.188,0.307,0.286,0.275,0.154,0.094,west-northwest,3.8,No
2019/03/22,02:40,0.203,0.188,0.308,0.289,0.277,0.154,0.093,west,2.0,No
2019/03/22,02:50,0.203,0.186,0.308,0.288,0.275,0.155,0.094,west-southwest,2.2,No
2019/03/22,03:00,0.203,0.188,0.309,0.289,0.278,0.153,0.094,west,2.5,No
2019/03/22,03:10,0.203,0.188,0.307,0.288,0.275,0.153,0.093,west,3.1,No
2019/03/22,03:20,0.202,0.187,0.307,0.287,0.278,0.154,0.094,west-northwest,8.7,No
2019/03/22,03:30,0.203,0.187,0.308,0.289,0.274,0.154,0.094,west-northwest,9.5,No
2019/03/22,03:40,0.203,0.187,0.307,0.288,0.277,0.155,0.093,west,12.3,No
2019/03/22,03:50,0.202,0.189,0.309,0.289,0.276,0.154,0.094,west,12.6,No
2019/03/22,04:00,0.204,0.187,0.308,0.289,0.275,0.155,0.094,west-northwest,13.6,No
2019/03/22,04:10,0.204,0.189,0.308,0.290,0.276,0.154,0.094,west,12.5,No
2019/03/22,04:20,0.204,0.187,0.309,0.288,0.275,0.155,0.094,west,13.9,No
2019/03/22,04:30,0.203,0.186,0.308,0.288,0.278,0.154,0.094,west-northwest,14.3,No
2019/03/22,04:40,0.204,0.188,0.310,0.290,0.275,0.154,0.094,west,12.8,No
2019/03/22,04:50,0.203,0.188,0.308,0.289,0.277,0.154,0.094,west,13.4,No
2019/03/22,05:00,0.204,0.188,0.310,0.291,0.277,0.155,0.094,west-northwest,12.9,No
2019/03/22,05:10,0.204,0.189,0.309,0.288,0.277,0.154,0.095,west-northwest,12.4,No
2019/03/22,05:20,0.202,0.188,0.308,0.289,0.278,0.155,0.094,west-northwest,12.9,No
2019/03/22,05:30,0.204,0.188,0.310,0.290,0.276,0.155,0.093,west,13.2,No
2019/03/22,05:40,0.203,0.189,0.308,0.290,0.277,0.154,0.094,west-northwest,10.7,No
2019/03/22,05:50,0.204,0.187,0.309,0.290,0.276,0.155,0.093,west-northwest,11.5,No
2019/03/22,06:00,0.203,0.188,0.310,0.289,0.277,0.155,0.094,west-northwest,12.2,No
2019/03/22,06:10,0.203,0.189,0.308,0.290,0.278,0.154,0.095,northwest,12.1,No
2019/03/22,06:20,0.204,0.186,0.309,0.288,0.276,0.154,0.094,west,12.8,No
2019/03/22,06:30,0.204,0.188,0.309,0.289,0.279,0.154,0.094,west-northwest,14.0,No
2019/03/22,06:40,0.204,0.188,0.309,0.290,0.276,0.154,0.094,west-northwest,11.5,No
2019/03/22,06:50,0.205,0.188,0.311,0.288,0.276,0.154,0.095,west-northwest,12.5,No
2019/03/22,07:00,0.204,0.188,0.309,0.290,0.277,0.155,0.094,west-northwest,12.9,No
2019/03/22,07:10,0.203,0.187,0.309,0.288,0.276,0.153,0.094,west-northwest,13.4,No
2019/03/22,07:20,0.205,0.187,0.309,0.289,0.278,0.155,0.094,west-northwest,12.0,No
2019/03/22,07:30,0.203,0.188,0.311,0.289,0.277,0.154,0.093,west-northwest,11.8,No
2019/03/22,07:40,0.204,0.188,0.308,0.289,0.278,0.154,0.094,west-northwest,14.4,No
2019/03/22,07:50,0.205,0.187,0.309,0.290,0.276,0.155,0.094,west-northwest,15.6,No
2019/03/22,08:00,0.204,0.188,0.309,0.287,0.277,0.154,0.094,west-northwest,13.2,No
2019/03/22,08:10,0.204,0.187,0.308,0.290,0.277,0.155,0.093,west-northwest,16.0,No
2019/03/22,08:20,0.203,0.188,0.310,0.288,0.275,0.154,0.095,west-northwest,15.1,No
2019/03/22,08:30,0.204,0.187,0.309,0.289,0.277,0.155,0.093,west-northwest,11.4,No
2019/03/22,08:40,0.204,0.188,0.308,0.288,0.276,0.154,0.094,west-northwest,16.1,No
2019/03/22,08:50,0.203,0.187,0.309,0.289,0.277,0.154,0.093,west-northwest,17.5,No
2019/03/22,09:00,0.204,0.188,0.308,0.287,0.277,0.154,0.094,west,17.2,No
2019/03/22,09:10,0.202,0.188,0.310,0.289,0.275,0.155,0.093,west-northwest,16.9,No
2019/03/22,09:20,0.204,0.189,0.309,0.288,0.277,0.155,0.093,west-northwest,15.3,No
2019/03/22,09:30,0.202,0.186,0.310,0.285,0.275,0.154,0.094,west-northwest,15.8,No
2019/03/22,09:40,0.203,0.188,0.309,0.288,0.276,0.155,0.094,west-northwest,17.2,No
2019/03/22,09:50,0.203,0.187,0.311,0.289,0.277,0.155,0.094,west-northwest,18.4,No
2019/03/22,10:00,0.204,0.187,0.309,0.287,0.275,0.153,0.095,northwest,17.9,No
2019/03/22,10:10,0.202,0.187,0.309,0.287,0.277,0.154,0.094,west-northwest,18.0,No
2019/03/22,10:20,0.204,0.187,0.310,0.289,0.276,0.154,0.093,northwest,18.7,No
2019/03/22,10:30,0.204,0.187,0.309,0.288,0.278,0.154,0.094,northwest,17.6,No
2019/03/22,10:40,0.204,0.186,0.310,0.289,0.276,0.155,0.093,west-northwest,17.2,No
2019/03/22,10:50,0.204,0.188,0.309,0.288,0.277,0.153,0.093,northwest,15.5,No
2019/03/22,11:00,0.205,0.187,0.311,0.288,0.278,0.154,0.095,west-northwest,14.5,No
2019/03/22,11:10,0.205,0.190,0.308,0.292,0.275,0.155,0.094,west-northwest,11.4,No
2019/03/22,11:20,0.203,0.189,0.310,0.288,0.278,0.154,0.094,west,10.0,No
2019/03/22,11:30,0.205,0.188,0.309,0.286,0.276,0.155,0.095,west-northwest,10.0,No
2019/03/22,11:40,0.204,0.188,0.309,0.290,0.277,0.154,0.094,northwest,8.4,No
2019/03/22,11:50,0.205,0.189,0.309,0.290,0.279,0.154,0.094,west-northwest,9.3,No
2019/03/22,12:00,0.204,0.188,0.310,0.290,0.274,0.154,0.094,west-northwest,15.0,No
2019/03/22,12:10,0.205,0.189,0.308,0.289,0.277,0.154,0.094,west-northwest,12.0,No
2019/03/22,12:20,0.205,0.188,0.311,0.290,0.277,0.154,0.093,west-northwest,10.6,No
2019/03/22,12:30,0.205,0.188,0.310,0.289,0.278,0.155,0.094,west-northwest,12.0,No
2019/03/22,12:40,0.203,0.188,0.310,0.290,0.277,0.155,0.095,west-northwest,12.4,No
2019/03/22,12:50,0.205,0.189,0.309,0.288,0.278,0.155,0.094,west-northwest,12.9,No
2019/03/22,13:00,0.205,0.189,0.310,0.290,0.279,0.154,0.094,west-northwest,10.4,No
2019/03/22,13:10,0.204,0.187,0.311,0.289,0.278,0.155,0.094,west-northwest,7.3,No
2019/03/22,13:20,0.204,0.188,0.310,0.290,0.278,0.154,0.094,west-northwest,8.1,No
2019/03/22,13:30,0.205,0.188,0.310,0.289,0.276,0.155,0.094,northwest,10.4,No
2019/03/22,13:40,0.204,0.188,0.310,0.290,0.279,0.155,0.094,northwest,11.0,No
2019/03/22,13:50,0.205,0.188,0.310,0.288,0.275,0.155,0.093,west-northwest,10.7,No
2019/03/22,14:00,0.204,0.189,0.311,0.290,0.278,0.154,0.094,northwest,11.4,No
2019/03/22,14:10,0.204,0.189,0.310,0.291,0.277,0.154,0.095,west-northwest,11.5,No
2019/03/22,14:20,0.203,0.189,0.311,0.290,0.278,0.155,0.094,northwest,15.1,No
2019/03/22,14:30,0.204,0.188,0.311,0.289,0.276,0.155,0.095,west-northwest,13.3,No
2019/03/22,14:40,0.205,0.188,0.311,0.288,0.279,0.154,0.095,west-northwest,11.2,No
2019/03/22,14:50,0.204,0.188,0.310,0.291,0.274,0.155,0.093,west-northwest,12.2,No
2019/03/22,15:00,0.204,0.188,0.310,0.288,0.276,0.154,0.094,northwest,11.2,No
2019/03/22,15:10,0.204,0.190,0.312,0.291,0.276,0.155,0.094,northwest,9.8,No
2019/03/22,15:20,0.206,0.187,0.310,0.290,0.278,0.155,0.094,west-northwest,10.1,No
2019/03/22,15:30,0.205,0.189,0.310,0.290,0.277,0.154,0.094,west-northwest,9.8,No
2019/03/22,15:40,0.206,0.189,0.311,0.290,0.278,0.155,0.095,northwest,10.6,No
2019/03/22,15:50,0.205,0.189,0.310,0.291,0.278,0.155,0.094,west-northwest,11.2,No
2019/03/22,16:00,0.205,0.190,0.310,0.292,0.277,0.155,0.094,northwest,11.0,No
2019/03/22,16:10,0.206,0.188,0.311,0.289,0.278,0.155,0.094,west-northwest,9.8,No
2019/03/22,16:20,0.204,0.188,0.309,0.290,0.276,0.155,0.094,northwest,9.8,No
2019/03/22,16:30,0.204,0.188,0.311,0.293,0.276,0.155,0.094,northwest,9.8,No
2019/03/22,16:40,0.206,0.189,0.311,0.290,0.278,0.155,0.094,west-northwest,12.0,No
2019/03/22,16:50,0.204,0.188,0.310,0.292,0.276,0.155,0.094,northwest,10.7,No
2019/03/22,17:00,0.204,0.188,0.310,0.291,0.279,0.155,0.093,northwest,9.5,No
2019/03/22,17:10,0.206,0.189,0.312,0.291,0.280,0.157,0.094,northwest,9.8,No
2019/03/22,17:20,0.206,0.189,0.309,0.291,0.280,0.156,0.095,north-northwest,5.3,No
2019/03/22,17:30,0.205,0.189,0.310,0.292,0.279,0.155,0.094,northwest,7.4,No
2019/03/22,17:40,0.206,0.189,0.312,0.290,0.279,0.154,0.095,northwest,8.5,No
2019/03/22,17:50,0.205,0.189,0.310,0.291,0.278,0.156,0.095,northwest,8.7,No
2019/03/22,18:00,0.205,0.190,0.309,0.292,0.278,0.156,0.094,northwest,9.0,No
2019/03/22,18:10,0.205,0.189,0.311,0.290,0.280,0.155,0.094,northwest,8.2,No
2019/03/22,18:20,0.206,0.189,0.309,0.290,0.278,0.155,0.094,northwest,7.0,No
2019/03/22,18:30,0.205,0.189,0.310,0.291,0.279,0.156,0.094,northwest,9.8,No
2019/03/22,18:40,0.205,0.189,0.311,0.292,0.276,0.156,0.093,north-northwest,8.8,No
2019/03/22,18:50,0.205,0.188,0.310,0.291,0.280,0.156,0.094,northwest,9.8,No
2019/03/22,19:00,0.205,0.188,0.310,0.291,0.278,0.155,0.095,northwest,8.9,No
2019/03/22,19:10,0.204,0.188,0.311,0.291,0.275,0.154,0.094,north-northwest,9.6,No
2019/03/22,19:20,0.204,0.188,0.312,0.291,0.278,0.155,0.094,northwest,11.2,No
2019/03/22,19:30,0.205,0.189,0.311,0.290,0.279,0.155,0.095,northwest,11.5,No
2019/03/22,19:40,0.204,0.189,0.310,0.292,0.277,0.155,0.094,northwest,9.8,No
2019/03/22,19:50,0.205,0.189,0.309,0.291,0.278,0.155,0.093,north-northwest,14.5,No
2019/03/22,20:00,0.204,0.187,0.310,0.290,0.277,0.155,0.095,northwest,11.1,No
2019/03/22,20:10,0.205,0.189,0.310,0.290,0.278,0.154,0.093,northwest,10.4,No
2019/03/22,20:20,0.206,0.189,0.311,0.291,0.278,0.155,0.094,northwest,8.1,No
2019/03/22,20:30,0.204,0.190,0.310,0.291,0.279,0.155,0.094,northwest,7.0,No
2019/03/22,20:40,0.204,0.190,0.311,0.290,0.277,0.154,0.094,north,3.5,No
2019/03/22,20:50,0.205,0.190,0.311,0.291,0.279,0.155,0.094,northwest,5.6,No
2019/03/22,21:00,0.205,0.189,0.311,0.291,0.279,0.155,0.093,north-northwest,6.8,No
2019/03/22,21:10,0.205,0.189,0.310,0.291,0.277,0.154,0.094,northwest,9.2,No
2019/03/22,21:20,0.204,0.189,0.311,0.290,0.278,0.155,0.094,northwest,10.9,No
2019/03/22,21:30,0.205,0.189,0.311,0.289,0.278,0.155,0.095,northwest,6.6,No
2019/03/22,21:40,0.205,0.188,0.312,0.291,0.277,0.154,0.094,northwest,7.8,No
2019/03/22,21:50,0.204,0.188,0.311,0.291,0.277,0.155,0.094,west-northwest,8.7,No
2019/03/22,22:00,0.205,0.188,0.310,0.288,0.278,0.155,0.094,northwest,7.8,No
2019/03/22,22:10,0.204,0.188,0.311,0.289,0.277,0.154,0.094,north-northwest,8.5,No
2019/03/22,22:20,0.205,0.188,0.311,0.291,0.276,0.155,0.093,northwest,6.0,No
2019/03/22,22:30,0.204,0.189,0.311,0.290,0.277,0.155,0.094,north-northwest,6.2,No
2019/03/22,22:40,0.204,0.189,0.310,0.291,0.277,0.154,0.095,north-northwest,4.3,No
2019/03/22,22:50,0.205,0.188,0.311,0.291,0.278,0.154,0.093,north-northwest,7.1,No
2019/03/22,23:00,0.205,0.188,0.311,0.291,0.277,0.155,0.095,north-northwest,5.1,No
2019/03/22,23:10,0.204,0.190,0.310,0.290,0.277,0.156,0.094,north-northwest,4.0,No
2019/03/22,23:20,0.205,0.190,0.309,0.290,0.276,0.155,0.094,northwest,4.1,No
2019/03/22,23:30,0.204,0.189,0.312,0.291,0.277,0.155,0.094,northwest,4.2,No
2019/03/22,23:40,0.205,0.189,0.311,0.292,0.277,0.155,0.095,north-northwest,6.4,No
2019/03/22,23:50,0.205,0.188,0.309,0.291,0.276,0.155,0.094,northwest,4.8,No
